Tacoma, WA

7:58 AM PDT on August 24, 2016 (GMT -0700)
McChord Air Force Base

Weather History for KTCM - July, 2013

Change the Weather History Date:

Wednesday, July 31, 2013

  Actual Average Record
Temperature  
Mean Temperature 64 °F -  
Max Temperature 71 °F 75 °F 97 °F (1959)
Min Temperature 56 °F 52 °F 43 °F (2008)
Degree Days  
Heating Degree Days 2    
Growing Degree Days 14 (Base 50)    
Moisture  
Dew Point 56 °F    
Average Humidity 81    
Maximum Humidity 96    
Minimum Humidity 62    
Precipitation  
Precipitation 0.00 in - - ()
Sea Level Pressure  
Sea Level Pressure 30.10 in    
Wind  
Wind Speed 3 mph (West)    
Max Wind Speed 8 mph    
Max Gust Speed -    
Visibility 10 miles    
Events Rain    
Averages and records for this station are not official NWS values.
T = Trace of Precipitation, MM = Missing Value Source: NWS Daily Summary

Daily Weather History Graph

Daily Weather History Graph

Search for Another Location

Airport or City:

Trip Planner

Search our weather history database for the weather conditions in past years. The results will help you decide how hot, cold, wet, or windy it might be!

Date:

Astronomy

Jul. 31, 2013 Rise Set
Actual Time 5:48 AM PDT 8:43 PM PDT
Civil Twilight 5:12 AM PDT 9:19 PM PDT
Nautical Twilight 4:26 AM PDT 10:04 PM PDT
Astronomical Twilight 3:31 AM PDT 10:59 PM PDT
Moon 12:47 AM PDT (7/31) 4:06 PM PDT (7/31)
Length of Visible Light 16h 06m
Length of Day
14h 55m
Waning Crescent, 31% of the Moon is Illuminated
Jul 31
Waning Crescent
Aug 6
New
Aug 14
First Quarter
Aug 20
Full
Aug 28
Last Quarter

Hourly Weather History & Observations

Time (PDT) Temp. Dew Point Humidity Pressure Visibility Wind Dir Wind Speed Gust Speed Precip Events Conditions
12:58 AM 58.6 °F 55.0 °F 88% 30.15 in 10.0 mi SSW 2.3 mph - N/A   Scattered Clouds
1:58 AM 57.4 °F 54.7 °F 91% 30.15 in 10.0 mi Variable 1.2 mph - N/A   Mostly Cloudy
2:08 AM 57.2 °F 55.4 °F 94% 30.14 in 10.0 mi NW 4.6 mph - N/A   Mostly Cloudy
2:19 AM 57.2 °F 55.4 °F 94% 30.14 in 10.0 mi NW 4.6 mph - N/A   Overcast
2:58 AM 57.4 °F 55.0 °F 92% 30.14 in 10.0 mi Variable 4.6 mph - N/A   Overcast
3:13 AM 57.2 °F 55.4 °F 94% 30.13 in 10.0 mi West 5.8 mph - N/A   Overcast
3:58 AM 56.8 °F 54.9 °F 93% 30.14 in 10.0 mi WSW 4.6 mph - N/A   Overcast
4:08 AM 57.2 °F 55.4 °F 94% 30.13 in 10.0 mi WNW 3.5 mph - N/A   Overcast
4:58 AM 56.7 °F 55.0 °F 94% 30.14 in 10.0 mi SW 3.5 mph - N/A   Overcast
5:58 AM 56.5 °F 55.4 °F 96% 30.14 in 10.0 mi SW 5.8 mph - N/A   Overcast
6:58 AM 56.5 °F 55.4 °F 96% 30.14 in 10.0 mi SSW 4.6 mph - N/A   Overcast
7:43 AM 57.2 °F 55.4 °F 94% 30.14 in 10.0 mi Variable 1.2 mph - N/A   Overcast
7:58 AM 56.8 °F 54.7 °F 92% 30.15 in 10.0 mi South 2.3 mph - N/A   Overcast
8:03 AM 57.2 °F 55.4 °F 94% 30.14 in 10.0 mi Calm Calm - N/A   Overcast
8:08 AM 57.2 °F 53.6 °F 88% 30.14 in 10.0 mi Calm Calm - N/A   Overcast
8:23 AM 57.2 °F 53.6 °F 88% 30.14 in 10.0 mi WSW 3.5 mph - N/A   Overcast
8:58 AM 57.9 °F 54.5 °F 88% 30.15 in 10.0 mi Variable 2.3 mph - N/A   Overcast
9:58 AM 59.0 °F 54.5 °F 85% 30.13 in 10.0 mi SE 2.3 mph - N/A   Overcast
10:03 AM 59.0 °F 55.4 °F 88% 30.12 in 10.0 mi SSE 2.3 mph - N/A   Overcast
10:58 AM 59.9 °F 54.7 °F 83% 30.12 in 10.0 mi WSW 2.3 mph - N/A   Overcast
11:18 AM 60.8 °F 55.4 °F 82% 30.11 in 10.0 mi SSW 3.5 mph - N/A   Overcast
11:58 AM 62.4 °F 55.4 °F 78% 30.11 in 10.0 mi NNW 3.5 mph - N/A   Overcast
12:48 PM 64.4 °F 55.4 °F 73% 30.09 in 10.0 mi Variable 2.3 mph - N/A   Overcast
12:58 PM 64.2 °F 55.9 °F 74% 30.10 in 10.0 mi SW 3.5 mph - N/A   Overcast
1:13 PM 66.2 °F 55.4 °F 68% 30.09 in 10.0 mi Variable 1.2 mph - N/A   Scattered Clouds
1:20 PM 66.2 °F 55.4 °F 68% 30.09 in 10.0 mi Calm Calm - N/A Rain Light Rain
1:31 PM 66.2 °F 57.2 °F 73% 30.08 in 10.0 mi SW 4.6 mph - N/A   Partly Cloudy
1:32 PM 66.2 °F 57.2 °F 73% 30.08 in 10.0 mi SW 4.6 mph - N/A Rain Light Rain
1:42 PM 68.0 °F 57.2 °F 68% 30.08 in 10.0 mi Variable 2.3 mph - N/A Rain Light Rain
1:45 PM 68.0 °F 57.2 °F 68% 30.08 in 10.0 mi SSW 3.5 mph - N/A   Partly Cloudy
1:50 PM 68.0 °F 57.2 °F 68% 30.08 in 10.0 mi Variable 1.2 mph - N/A Rain Light Rain
1:58 PM 67.6 °F 56.7 °F 68% 30.09 in 10.0 mi NNW 5.8 mph - 0.00 in Rain Light Rain
2:00 PM 68.0 °F 57.2 °F 68% 30.08 in 10.0 mi Variable 5.8 mph - N/A   Partly Cloudy
2:58 PM 69.6 °F 56.8 °F 64% 30.08 in 10.0 mi Variable 3.5 mph - 0.00 in   Partly Cloudy
3:58 PM 71.4 °F 57.6 °F 62% 30.07 in 10.0 mi NW 4.6 mph - N/A   Partly Cloudy
4:58 PM 70.5 °F 57.7 °F 64% 30.06 in 10.0 mi Variable 3.5 mph - N/A   Partly Cloudy
5:58 PM 71.1 °F 58.3 °F 64% 30.06 in 10.0 mi NE 5.8 mph - N/A   Scattered Clouds
6:58 PM 70.3 °F 58.3 °F 66% 30.03 in 10.0 mi NW 4.6 mph - N/A   Clear
7:58 PM 70.3 °F 57.9 °F 65% 30.03 in 10.0 mi North 5.8 mph - N/A   Clear
8:58 PM 67.3 °F 57.7 °F 71% 30.04 in 10.0 mi Variable 3.5 mph - N/A   Clear
9:58 PM 63.7 °F 57.6 °F 80% 30.05 in 10.0 mi West 8.1 mph - N/A   Clear
10:53 PM 59.0 °F 53.6 °F 82% 30.06 in 10.0 mi West 6.9 mph - N/A   Mostly Cloudy
10:58 PM 58.5 °F 54.0 °F 85% 30.07 in 10.0 mi WNW 6.9 mph - N/A   Mostly Cloudy
11:23 PM 57.2 °F 53.6 °F 88% 30.07 in 10.0 mi Variable 5.8 mph - N/A   Mostly Cloudy
11:48 PM 57.2 °F 53.6 °F 88% 30.07 in 10.0 mi WNW 4.6 mph - N/A   Mostly Cloudy
11:53 PM 57.2 °F 53.6 °F 88% 30.07 in 10.0 mi Variable 2.3 mph - N/A   Mostly Cloudy
11:58 PM 57.7 °F 53.6 °F 86% 30.08 in 10.0 mi WNW 5.8 mph - N/A   Mostly Cloudy